This is the latest recevied weather packets stored in our database for station/object SA3VCC-15. If no packets are shown the sender has not sent any weather packets the latest 10 day(s).
| Time | Temp. | Humidity | Pressure | Rain* | Wind** | Luminosity | Snow |
|---|---|---|---|---|---|---|---|
| 1777773011 | 5.56° C | 90% | 1007.1 hPa | - | - | - | - |
| 1777770491 | 6.11° C | 94% | 1006.8 hPa | - | - | - | - |
| 1777769231 | 6.11° C | 95% | 1006.7 hPa | - | - | - | - |
| 1777767971 | 6.67° C | 98% | 1006.5 hPa | - | - | - | - |
| 1777766711 | 6.67° C | 97% | 1006.3 hPa | - | - | - | - |
| 1777764190 | 9.44° C | 98% | 1005.6 hPa | - | - | - | - |
| 1777762930 | 9.44° C | 97% | 1004.7 hPa | - | - | - | - |
| 1777761670 | 9.44° C | 94% | 1004.6 hPa | - | - | - | - |
| 1777759150 | 10° C | 88% | 1004.5 hPa | - | - | - | - |
| 1777757890 | 10.56° C | 85% | 1004.5 hPa | - | - | - | - |
| 1777756630 | 10.56° C | 83% | 1004.4 hPa | - | - | - | - |
| 1777755370 | 10.56° C | 90% | 1004.3 hPa | - | - | - | - |
| 1777754110 | 10.56° C | 92% | 1004.5 hPa | - | - | - | - |
| 1777751590 | 11.67° C | 73% | 1004.5 hPa | - | - | - | - |
| 1777750330 | 12.78° C | 56% | 1004.8 hPa | - | - | - | - |
| 1777749071 | 13.89° C | 47% | 1004.2 hPa | - | - | - | - |
| 1777747810 | 14.44° C | 46% | 1003.8 hPa | - | - | - | - |
| 1777745290 | 16.11° C | 42% | 1003.1 hPa | - | - | - | - |
| 1777744030 | 17.22° C | 40% | 1003.1 hPa | - | - | - | - |
| 1777742770 | 18.33° C | 34% | 1002.8 hPa | - | - | - | - |
| 1777741510 | 18.89° C | 32% | 1002.7 hPa | - | - | - | - |
| 1777740250 | 19.44° C | 28% | 1002.7 hPa | - | - | - | - |
| 1777738990 | 20° C | 26% | 1002.6 hPa | - | - | - | - |
| 1777737730 | 21.67° C | 25% | 1002.6 hPa | - | - | - | - |
| 1777736470 | 22.22° C | 24% | 1002.5 hPa | - | - | - | - |
* Rain since midnight (hover to see other rain measurements)
** Current wind speed in m/s (hover to see current wind gust speed)